Location: Forst
(46.9333°N, 15.4333°E)
Time: 12:22:04
(UTC+00:00)

X-37B - Pass Details

Date: 03 October 2021
Orbit: 385 x 389 km, 45.0° (Epoch: 17 October)

Event Time Altitude Azimuth Distance (km) Brightness Sun altitude
Exits shadow 02:25:06 11° 117° (ESE) 1,354 3.7 -26.6°
Drops below altitude 10° 02:25:14 10° 116° (ESE) 1,411 3.9 -26.5°
Sets 02:27:21 0° 111° (ESE) 2,264 5.1 -26.2°
